282  
ASHW40 PHFO 240443  
RWRHI  
 
WEATHER ROUNDUP FOR HAWAII  
NATIONAL WEATHER SERVICE HONOLULU HI  
600 PM HST SAT JUL 23 2016  
 
THIS IS AN AUTOMATED REPORT THAT HAS NOT BEEN QUALITY CONTROLLED.  
 
NOTE..."FAIR" INDICATES FEW OR NO CLOUDS BELOW 12,000 FEET WITH NO  
SIGNIFICANT WEATHER AND/OR S TO VISIBILITY
.  
 
* - THESE SITES REPORT LIMITED FIELDS  
 
HIZ001>004-240500-  
KAUAI-NIIHAU-  
 
CITY SKY/WX TMP DP RH WIND PRES REMARKS
 
LIHUE APT LGT RAIN 75 71 87 NE20 29.95S  
PORT ALLEN* N/A 86 N/A N/A N6G21 N/A  
POIPU* N/A 82 N/A N/A NE9G18 N/A  
PRINCEVILLE* N/A 75 N/A N/A S2 N/A  
KOKOLE POINT* N/A 84 N/A N/A MISG N/A  
MOLOAA DAIRY* N/A 77 72 83 NE3G10 N/A  
WAIMEA HTS* N/A 82 66 57 W6G13 N/A  
PUU OPAE* N/A 73 64 73 SW2 N/A  
PUU LUA* NOT AVBL  
MAKAHA RIDGE* N/A 75 68 78 NE5G16 N/A  

 
 
HIZ005>011-240500-  
OAHU-  
 
CITY SKY/WX TMP DP RH WIND PRES REMARKS
 
HONOLULU PTSUNNY 81 72 74 VRB7G17 29.86S  
KALAELOA CLOUDY 79 74 84 NE7 29.88S  
KANEOHE MCB RAIN 79 75 87 NE15G22 29.87S  
WHEELER FIELD NOT AVBL  
BELLOWS* N/A N/A N/A N/A NE17G26 N/A  
KAHUKU* N/A N/A N/A N/A VRB8G16 N/A  
WHEELER* N/A N/A N/A N/A N7G14 N/A  
WAIANAE HARBOR N/A N/A N/A N/A SW2G8 N/A  
DILLINGHAM* N/A 75 73 94 MISG N/A  
KAHUKU TRN* N/A 79 77 94 W10G25 N/A  
KAWAILOA* N/A 73 72 94 NE9G28 N/A  
KII* N/A 79 75 89 NE17G28 N/A  
MAKUA RANGE* N/A 79 73 83 W16G30 N/A  
OAHU FOREST NW NOT AVBL  
SCHOFIELD BRK* N/A 75 73 94 MISG N/A  
SCHOFIELD S* NOT AVBL  
WAIANAE VLY* NOT AVBL  
KUAOKALA* N/A 73 73 100 VRB30 N/A  
HONOULIUULI* NOT AVBL  
MOKUOLOE IS* NOT AVBL  
PALEHUA* N/A 70 70 100 NE14G29 N/A  
WAIAWA PHB* NOT AVBL  

 
 
HIZ012>013-240500-  
MOLOKAI-  
 
CITY SKY/WX TMP DP RH WIND PRES REMARKS
 
MOLOKAI AIRPT CLOUDY 78 73 84 NE16G29 29.86S  
KALAUPAPA NOT AVBL  
MAKAPULAPAI* N/A 79 73 83 E20G30 N/A  
MOLOKAI 1* NOT AVBL  
PUU ALII* N/A 63 63 100 N3G21 N/A  

 
 
HIZ016-240500-  
KAHOOLAWE-  
 
CITY SKY/WX TMP DP RH WIND PRES REMARKS
 
KAHOOLAWE* N/A 75 N/A N/A N1 N/A  
HAKIOAWA* N/A 78 73 85 MISG 30.25R  
HONOKANAIA* N/A 86 73 64 VRB12G35 29.74S HX 93  
KANELOA* N/A 81 73 78 N13G41 29.87F  
KEALIALALO* NOT AVBL  
LUA MAKIKA* NOT AVBL  

 
 
HIZ014>015-240500-  
LANAI-  
 
CITY SKY/WX TMP DP RH WIND PRES REMARKS
 
LANAI CITY CLOUDY 75 71 87 NE22G30 29.88R  
LANAI 1* NOT AVBL  

 
 
HIZ017>028-240500-  
MAUI-  
 
CITY SKY/WX TMP DP RH WIND PRES REMARKS
 
KAHULUI CLOUDY 77 75 93 NE22G31 29.83F  
KAPALUA-W MAUI CLOUDY 77 73 88 N24G37 29.81  
HANA AIRPORT N/A 77 73 88 E7 29.90S FOG  
HANA* N/A 79 N/A N/A E9G16 N/A  
HALEAKALA SUMM N/A 48 48 100 E32G48 N/A  
MAALAEA BAY* N/A 79 N/A N/A N25G38 N/A  
HALEAKALA* NOT AVBL  
KAUPO GAP* N/A 75 70 83 W24G48 N/A  
KULA 1* N/A 63 60 91 NW5G13 N/A  

 
 
HIZ023>026-240500-  
BIG ISLAND OF HAWAII COAST AND LOWER SLOPES-  
 
CITY SKY/WX TMP DP RH WIND PRES REMARKS
 
KAILUA KONA PTSUNNY 88 75 66 S20 29.73F HX 97  
HILO CLOUDY 75 75 100 S13G21 29.85R  
HONOKAA* N/A 75 N/A N/A VRB1 N/A  
KAWAIHAE MWT* N/A 88 N/A N/A S5 N/A  
KAWAIHAE* N/A 84 N/A N/A S7 29.76R  
SOUTH POINT* N/A 73 N/A N/A VRB10G17 N/A  
UPOLU AIRPORT* N/A N/A N/A N/A E22G31 N/A  
KAMUELA* CLOUDY 75 70 83 W8 29.91R  
HAKALAU* N/A 62 60 92 S8G18 N/A  
KALOKO-HONOKO* N/A 88 72 58 SE10 29.73R HX 94  
PALI 2* N/A 68 68 100 NW5 N/A  
KEALAKOMO* N/A 75 73 94 S23G35 N/A  
KAUPULEHU* N/A 81 73 78 E9G22 N/A  
KAPAPALA* N/A 71 70 97 CALM N/A  
LOWER KAHUKU* N/A 66 64 94 N1 N/A  
PUHE CS* N/A 88 70 55 S3G9 N/A HX 92  
PUHO CS* NOT AVBL  
PTA KEAMUKU* N/A 73 64 73 CALM N/A  
WAIKOLOA* N/A 81 72 74 W7G17 N/A  

 
 
HIZ027>028-240500-  
BIG ISLAND OF HAWAII INTERIOR AND SUMMMITS-  
 
CITY SKY/WX TMP DP RH WIND PRES REMARKS
 
BRADSHAW FIELD NOT AVBL  
MK VISITOR CEN N/A 52 50 93 E5 N/A  
MAUNA KEA* N/A 41 39 93 SW16 N/A  
MAUNA LOA* N/A 52 45 76 MISG N/A  
MAUNA LOA 1* NOT AVBL  
PTA KIPUKA* N/A 75 72 88 E1G8 N/A  
PTA RANGE 17* N/A 64 48 55 E18G37 N/A  
PTA WEST* N/A 72 55 56 S13G26 N/A  
NENE CABIN* N/A 57 55 94 VRB3 N/A  
AHUMOA* N/A 68 59 72 NE7G22 N/A  
PTA PORTABLE* NOT AVBL  
PUU MALI* N/A 63 63 100 N6G12 N/A  

 
 
HIC003-240500-  
NORTHWEST ISLANDS-  
 
CITY SKY/WX TMP DP RH WIND PRES REMARKS
 
MIDWAY ISLAND PTSUNNY 79 73 83 E21 30.11F  
MIDWAY NOS* N/A 81 N/A N/A MISG 30.10F  
FRENCH FRIGATE NOT AVBL  

 
 
PHZ110>124-180-240500-  
BUOY REPORTS  
 
STATION/POSITION TIME TEMP WIND PRES WAVE SWELL
 
AIR SEA DIR/SP/G HT/PER HT/DIR  
(UTC) (F) (DEG/KT/KT) (MB) (FT/S) (FT/D)  
BUOY 51001 0400 81 82 80/ 16/ 19 1015.1R  
BUOY 51101 0350 77 78 50/ 14/ 17 1016.1F 10/11 10/100  
BUOY 51100 NOT AVBL  
BUOY 51002 0350 81 82 70/ 14/ 16 1012.4S 9/12 8  
BUOY 51003 0350 80 82 20/ 14/ 17 1011.7R 7/ 8 5/ 40  
BUOY 51004 0350 81 81 110/ 12/ 14 1012.3R 8/ 8 7/ 50  
BARBERS PT BUOY NOT AVBL  
WAIMEA BAY BUOY 0404 79 N/A 6/ 6 2/ 40  
KAILUA BAY BUOY 0411 80 N/A 9/ 9 3/ 90  
LANAI BUOY 0415 81 N/A 2/13 2/210  
BARBERS PT 2 NOT AVBL  
PAUWELA MAUI 0409 79 N/A 10/10 3/ 80  
HILO 0412 80 N/A 10/ 8 3/ 80  
KANEOHE BAY BUOY 0406 79 N/A 8/ 9 3/ 90  
HANALEI KAUAI NOT AVBL  
KAHULUI HARBOR 0400 78 80 30/ 16/ 19 1010.4  
HONOLULU HARBOR 0400 80 80 50/ 9/ 15 1011.9  
KILO NALU NOT AVBL  
HILO HARBOR 0400 76 78 160/ 9/ 18 1010.2  
MOKUOLOE 0300 79 81 40/ 14/ 16 1012.3F  
NAWILIWILI 0400 77 81 360/ 8/ 15 1014.0  
WHOTS BUOY NOT AVBL  
BUOY 51028 NOT AVBL  

 
   
.....................KEY.....................................
 
 
SKY/WX - SKY CONDITIONS/PRESENT WEATHER  
TMP - TEMPERATURE IN FAHRENHEIT  
DWPT - DEWPOINT IN FAHRENHEIT  
RH - RELATIVE HUMIDITY IN PERCENT  
WIND - DIRECTION AND SPEED /MPH FOR ISLANDS...KTS FOR BUOYS/  
PRES - MEAN SEA LEVEL PRESSURE IN INCHES OF HG  
VSB - VISIBILITY IN MILES  
HX - HEAT INDEX  
WCI - WIND CHILL INDEX  
VRB - VARIABLE WIND DIRECTION  
N/A - NOT AVAILABLE  
 
 
CLICK HERE TO GO TO PREVIOUS BULLETINS.

The Nexlab HI Page Main Text Page

The Nexlab HI Page Main Text Page